Location: Wolf Creek Estates Observatory
(33.4774°N, 105.6743°W)
Time: 18:57:03
(UTC-07:00)

Envisat - Visible Passes

Search period start: 23 January 2018 00:00
Search period end: 02 February 2018 00:00
Orbit: 764 x 766 km, 98.2° (Epoch: 23 January)

Date Brightness Start Highest point End Pass type
(mag) Time Alt. Az. Time Alt. Az. Time Alt. Az.
23 Jan 5.3 19:56:53 13° NNW 19:56:53 13° NNW 19:57:27 10° NNW visible
24 Jan 4.9 19:19:28 16° N 19:19:28 16° N 19:20:31 10° N visible
25 Jan 4.9 18:42:01 13° NNE 18:42:01 13° NNE 18:42:47 10° NNE visible
25 Jan 5.5 20:22:12 13° NNW 20:22:12 13° NNW 20:22:46 10° NNW visible
26 Jan 4.8 19:44:45 20° N 19:44:45 20° N 19:46:19 10° N visible
27 Jan 4.5 19:07:18 21° NNE 19:07:18 21° NNE 19:09:12 10° N visible
27 Jan 5.8 20:47:29 11° NW 20:47:29 11° NW 20:47:38 10° NW visible
28 Jan 4.8 18:29:51 13° NE 18:29:51 13° NE 18:31:02 10° NNE visible
28 Jan 4.9 20:10:01 21° NNW 20:10:01 21° NNW 20:11:48 10° NNW visible
29 Jan 4.1 19:32:33 30° N 19:32:33 30° N 19:35:09 10° N visible
30 Jan 4.2 18:55:05 23° NE 18:55:05 23° NE 18:57:48 10° NNE visible
30 Jan 5.3 20:35:15 18° NW 20:35:15 18° NW 20:36:53 10° NW visible
31 Jan 4.8 18:17:36 11° ENE 18:17:36 11° ENE 18:18:48 10° NE visible
31 Jan 4.1 19:57:47 36° NNW 19:57:47 36° NNW 20:00:45 10° NNW visible
01 Feb 3.5 19:20:17 39° NE 19:20:17 39° NE 19:23:54 10° N visible
01 Feb 5.8 21:00:28 12° WNW 21:00:28 12° WNW 21:01:14 10° WNW visible
